Wind_Speed
40 42 40 37 33 29 30 30 32 33 30 29 28 27 26 28 29 31 33 35 36 39 41 43 46 49 52 56 58 61 63 65 66 68 68 70 72 73 72 68 68 63 66
43 43 41 37 35 31 33 32 35 37 33 32 29 28 28 30 33 35 36 38 40 42 45 50 53 56 59 62 64 67 70 70 68 71 72 73 72 73 72 74 73 75 75
43 45 46 41 41 34 37 35 37 39 36 34 31 32 33 34 35 37 40 42 46 49 52 53 56 61 66 69 69 71 73 74 77 77 80 82 81 78 78 78 78 78 79
45 48 48 48 43 34 38 39 39 40 39 37 36 36 37 40 41 42 43 46 50 53 54 60 64 68 70 70 74 78 78 80 81 83 84 87 87 87 84 81 81 81 79
46 48 49 50 48 35 35 42 41 42 42 40 40 40 42 44 44 44 46 49 52 56 61 65 66 68 72 77 79 80 81 83 85 88 91 92 92 92 92 88 85 86 84
45 49 49 52 48 40 36 40 43 41 40 40 41 43 44 45 47 48 49 53 58 61 64 66 68 72 77 80 81 82 85 88 92 93 93 95 96 97 101 103 102 101 93
43 50 50 51 46 40 38 39 41 43 43 44 45 47 47 48 49 51 55 58 60 63 66 69 74 78 81 82 83 86 90 92 94 96 98 102 106 108 110 114 108 98 97
45 48 48 49 47 40 41 40 42 44 45 45 45 46 49 50 53 57 60 61 63 68 70 74 77 80 84 86 89 90 92 95 100 103 108 111 108 99 90 89 86 82 81
46 47 47 49 46 41 43 43 44 44 45 45 46 47 51 54 56 60 61 64 69 73 75 78 81 84 88 90 91 93 96 102 109 112 109 89 83 75 71 70 68 66 71
45 47 47 44 42 41 43 44 45 45 45 47 50 52 56 58 59 61 64 68 74 76 79 80 83 86 87 90 92 97 105 111 109 95 84 76 64 56 47 48 51 60 66
50 49 46 41 41 38 41 44 45 46 49 52 53 56 56 57 59 62 66 72 75 77 80 82 84 86 86 88 97 106 112 110 87 79 67 49 48 49 51 51 52 55 53
43 46 47 42 41 41 40 44 47 51 54 55 56 55 57 58 60 63 70 73 75 78 81 84 83 82 85 93 104 112 100 80 75 51 50 52 55 57 61 62 59 56 57
50 51 48 45 44 45 44 46 50 52 54 55 56 56 57 58 62 68 72 74 76 80 80 79 79 83 92 103 111 95 69 57 48 52 57 60 62 67 62 60 59 51 52
60 59 48 49 45 46 47 50 52 53 55 56 55 55 58 61 68 69 72 74 78 77 76 76 80 90 102 107 83 61 50 49 54 59 60 61 59 48 45 41 45 46 47
61 47 46 46 44 47 48 50 53 55 54 53 54 57 62 65 66 70 73 75 74 73 75 78 87 99 105 75 61 49 51 55 58 60 59 44 43 45 37 33 31 41 46
48 45 45 45 46 48 50 52 54 54 52 54 57 60 61 65 68 70 72 72 72 72 77 85 95 98 75 61 49 51 53 57 59 46 34 39 46 37 33 20 18 25 40
41 40 36 38 48 47 48 51 51 52 55 56 56 59 63 66 67 68 69 69 70 75 82 91 97 76 59 50 44 50 53 59 40 29 33 39 30 28 23 20 20 19 21
35 40 40 38 41 45 48 49 51 52 53 54 57 61 64 65 64 66 65 68 74 80 86 93 74 59 54 40 45 48 57 42 24 27 33 27 28 23 19 20 22 26 19
33 41 45 46 44 45 49 51 52 53 54 57 59 60 61 62 61 62 66 72 78 83 89 75 62 55 38 39 42 48 48 26 20 25 21 20 21 18 11 13 17 17 30
36 41 42 44 46 48 49 50 53 55 57 57 58 58 59 58 58 62 70 76 82 82 70 61 55 36 31 34 39 47 30 20 19 22 16 17 11 11 10 10 9 15 30
38 38 37 40 44 47 50 52 54 55 55 56 55 56 57 57 60 68 72 77 70 52 53 49 32 23 26 33 39 39 22 19 19 14 12 12 7 14 18 19 16 23 27
38 39 40 42 45 48 51 52 52 52 53 53 53 55 56 60 66 69 67 54 43 44 35 23 23 23 26 27 34 37 22 18 18 18 14 12 13 13 14 22 23 31 32
38 42 45 46 50 49 49 49 49 50 50 51 53 55 61 66 68 60 43 37 36 32 23 22 21 18 22 24 29 35 25 17 19 18 15 10 12 14 8 14 20 23 25
40 42 45 44 46 46 46 48 48 47 48 51 54 59 62 59 56 42 33 31 26 25 24 24 24 17 18 21 25 28 28 17 10 14 15 11 9 8 4 9 14 20 21
40 40 42 44 43 44 45 46 46 47 48 51 56 55 49 34 34 30 31 22 23 24 22 18 14 13 15 17 21 25 24 25 20 10 5 7 9 6 8 9 13 14 14
41 44 45 45 44 44 44 43 45 46 50 55 54 48 33 21 23 27 22 18 18 12 11 11 12 13 14 15 16 19 20 21 21 19 17 13 9 6 4 1 2 5 6
Wind_Direction
279 282 293 303 311 283 257 256 258 262 265 264 263 267 274 276 278 279 279 279 278 278 279 280 282 284 286 287 287 287 287 287 285 282 280 280 280 280 279 279 278 274 269
279 285 289 300 303 295 258 255 258 261 261 261 262 266 269 274 278 279 280 277 277 279 281 280 283 287 287 287 285 285 285 284 283 283 281 279 278 280 277 275 275 274 271
282 287 290 295 301 291 257 252 255 257 257 257 260 265 270 272 274 279 280 277 278 279 279 281 284 285 285 286 287 285 285 285 284 282 282 280 278 275 272 270 269 268 267
282 289 291 295 300 288 254 248 252 253 254 256 259 263 268 273 275 278 279 276 276 279 280 282 284 287 288 287 284 284 285 284 284 283 283 284 283 281 276 272 271 271 272
284 288 289 292 297 287 259 247 249 250 253 256 260 264 267 272 277 278 280 280 280 280 282 284 285 286 285 283 285 287 287 289 290 290 287 284 282 281 281 277 273 270 269
283 287 288 292 292 286 271 253 249 251 252 258 260 264 269 273 276 277 278 279 282 285 285 285 285 285 286 288 291 292 293 292 290 286 283 282 281 280 281 281 279 276 275
274 282 287 290 290 285 275 260 253 253 256 259 263 267 271 274 276 277 280 283 287 287 288 289 290 291 292 293 293 292 291 288 286 285 285 285 288 289 291 293 293 286 282
271 279 285 289 288 283 275 260 256 256 258 263 269 273 275 275 273 276 282 288 289 289 290 291 292 293 294 293 292 291 289 289 288 291 295 297 300 296 287 279 273 266 259
279 283 282 286 283 277 268 261 256 258 261 266 269 269 270 272 278 282 286 287 290 292 292 293 294 293 292 294 293 291 291 294 298 302 306 299 291 284 283 279 276 272 266
281 283 283 282 276 272 265 261 256 256 260 264 267 272 275 278 281 284 288 292 294 292 292 293 293 293 294 294 294 295 298 302 309 308 295 292 291 285 286 283 278 273 269
282 279 277 277 270 266 261 257 256 258 262 266 270 273 277 282 284 288 290 290 289 291 292 293 294 295 295 298 299 301 303 309 305 295 295 289 284 283 279 279 279 283 279
278 277 278 277 267 261 255 253 255 259 263 267 271 276 280 284 286 287 288 288 290 292 293 296 297 298 300 299 301 302 314 303 299 294 289 289 286 283 281 279 276 275 275
274 280 280 276 263 259 259 257 258 262 266 271 274 278 282 284 286 287 289 292 293 294 296 298 300 300 301 302 306 316 306 301 296 295 295 294 291 289 286 276 270 266 267
273 277 274 269 262 257 259 259 262 266 269 273 277 280 283 285 288 289 291 291 294 297 300 301 302 303 305 309 312 307 300 298 298 297 296 295 294 290 287 282 262 253 252
272 266 267 266 261 258 259 263 265 267 270 275 279 282 284 287 289 290 290 294 298 301 302 301 302 305 310 310 307 298 300 303 301 298 297 293 296 296 288 286 270 246 243
264 268 268 263 259 259 261 263 266 269 275 279 281 284 287 288 289 291 295 300 302 304 304 304 306 312 312 311 298 300 303 305 303 300 292 293 297 294 290 279 288 257 243
264 262 254 252 255 258 259 261 266 271 275 280 285 288 289 290 291 296 300 301 304 306 305 306 311 312 312 301 301 303 304 306 302 292 297 297 293 291 275 283 288 266 254
262 252 241 240 248 251 255 264 269 275 281 285 287 288 291 293 297 299 301 306 308 305 306 310 315 313 308 298 303 306 313 306 293 297 309 295 293 284 277 281 282 271 242
242 239 235 242 249 254 261 267 273 278 282 286 288 292 292 293 297 302 305 306 305 306 312 318 308 308 299 302 313 312 314 295 289 297 310 314 294 282 277 285 276 223 179
242 244 243 247 252 259 267 272 275 278 282 288 290 290 292 296 301 304 305 306 307 313 317 310 307 300 300 319 320 324 307 288 291 302 312 332 306 263 223 228 264 171 178
240 250 254 257 260 264 268 271 275 280 286 288 289 291 293 298 302 303 306 309 317 312 308 309 306 302 314 329 334 329 301 278 286 300 320 352 324 290 244 231 227 187 178
249 256 260 262 265 267 270 275 282 285 285 286 287 291 297 298 299 305 314 319 309 307 310 309 308 320 319 338 343 343 318 278 268 290 309 327 340 346 270 241 238 215 205
256 258 262 265 266 269 276 281 282 280 282 285 290 293 295 297 304 316 319 305 302 308 299 310 315 318 317 329 341 353 339 297 273 275 285 304 321 347 296 245 245 223 207
259 263 266 270 271 273 276 276 276 279 283 286 289 293 300 308 313 322 306 301 302 300 298 316 322 310 315 332 342 352 1 355 313 282 275 272 302 310 301 254 213 202 192
263 264 265 267 269 271 271 272 276 279 283 285 290 300 309 303 304 308 298 297 297 310 310 317 318 307 319 334 345 356 5 14 21 10 306 274 276 272 247 233 229 226 212
257 262 266 267 268 267 269 273 275 278 283 289 297 305 300 282 299 298 297 300 309 324 325 353 345 337 338 333 335 350 1 8 12 31 43 54 65 69 60 55 230 223 198
Height
5813 5813 5810 5809 5809 5806 5804 5803 5803 5803 5804 5804 5804 5805 5805 5805 5804 5803 5802 5801 5801 5800 5799 5797 5794 5792 5790 5788 5785 5782 5778 5775 5771 5766 5765 5764 5760 5757 5755 5753 5753 5753 5754
5802 5803 5804 5801 5801 5800 5798 5796 5797 5797 5797 5797 5796 5797 5798 5797 5796 5795 5794 5793 5792 5790 5789 5786 5784 5782 5778 5774 5770 5765 5761 5757 5753 5746 5745 5743 5744 5741 5739 5736 5734 5735 5732
5791 5791 5791 5793 5792 5790 5790 5788 5789 5790 5790 5790 5789 5789 5788 5788 5788 5786 5785 5784 5782 5780 5777 5775 5772 5768 5764 5759 5755 5749 5743 5739 5733 5729 5720 5718 5719 5718 5717 5714 5712 5710 5709
5781 5780 5778 5778 5781 5780 5780 5778 5780 5781 5782 5782 5781 5779 5779 5779 5777 5777 5775 5774 5772 5768 5766 5762 5758 5753 5747 5742 5735 5729 5724 5717 5714 5706 5700 5692 5690 5688 5689 5692 5693 5691 5692
5771 5769 5768 5767 5767 5768 5769 5770 5770 5772 5772 5772 5772 5771 5769 5769 5768 5766 5765 5763 5760 5756 5751 5746 5742 5737 5731 5724 5717 5710 5704 5696 5690 5682 5675 5669 5661 5658 5655 5661 5667 5667 5667
5763 5760 5757 5756 5756 5756 5758 5760 5761 5760 5760 5760 5760 5759 5758 5757 5757 5755 5752 5748 5745 5741 5736 5731 5726 5719 5711 5703 5695 5688 5681 5673 5665 5658 5649 5640 5638 5635 5627 5625 5631 5633 5641
5754 5752 5749 5746 5744 5744 5746 5748 5749 5749 5749 5748 5748 5747 5747 5745 5743 5741 5738 5735 5732 5727 5720 5714 5707 5700 5691 5683 5675 5667 5658 5648 5637 5630 5623 5617 5610 5603 5596 5593 5596 5590 5596
5744 5743 5740 5736 5733 5733 5734 5735 5736 5737 5737 5736 5736 5735 5734 5733 5730 5727 5724 5721 5715 5710 5703 5696 5688 5680 5672 5663 5653 5644 5633 5621 5611 5603 5594 5585 5578 5569 5559 5553 5552 5553 5550
5732 5732 5729 5725 5722 5721 5722 5723 5724 5724 5725 5725 5725 5722 5721 5718 5716 5713 5709 5705 5699 5693 5686 5678 5671 5662 5652 5641 5630 5620 5607 5594 5583 5576 5564 5550 5544 5536 5533 5530 5528 5529 5526
5721 5719 5716 5713 5710 5709 5711 5711 5712 5712 5713 5712 5710 5708 5706 5704 5701 5699 5695 5690 5683 5676 5668 5661 5651 5642 5632 5621 5609 5596 5582 5568 5558 5546 5534 5526 5521 5515 5514 5512 5510 5508 5509
5707 5705 5702 5700 5699 5698 5699 5699 5700 5700 5699 5697 5696 5694 5693 5691 5688 5684 5679 5674 5667 5659 5651 5643 5633 5623 5611 5599 5585 5571 5557 5546 5534 5521 5513 5510 5507 5503 5500 5499 5496 5494 5493
5693 5691 5688 5688 5688 5686 5686 5687 5688 5687 5685 5684 5683 5682 5680 5678 5674 5670 5664 5656 5649 5640 5632 5625 5614 5602 5590 5576 5561 5547 5534 5519 5510 5504 5500 5496 5491 5486 5483 5480 5479 5478 5477
5676 5675 5677 5675 5675 5674 5675 5675 5674 5674 5673 5672 5671 5669 5667 5664 5659 5653 5645 5639 5632 5624 5616 5606 5595 5581 5568 5553 5538 5525 5512 5501 5496 5492 5486 5480 5472 5467 5461 5457 5457 5461 5462
5660 5664 5664 5661 5662 5662 5662 5662 5662 5662 5660 5659 5658 5656 5652 5647 5642 5636 5629 5623 5616 5608 5599 5586 5575 5562 5548 5531 5516 5506 5499 5491 5485 5479 5470 5462 5455 5450 5444 5439 5438 5444 5448
5644 5648 5648 5648 5648 5648 5648 5648 5648 5647 5646 5646 5644 5641 5636 5631 5625 5620 5615 5608 5598 5590 5580 5569 5556 5542 5526 5511 5502 5494 5488 5480 5472 5463 5455 5449 5443 5436 5433 5428 5425 5427 5433
5629 5631 5633 5634 5634 5634 5635 5635 5635 5634 5634 5632 5628 5624 5620 5614 5611 5606 5599 5591 5583 5575 5562 5552 5539 5522 5509 5498 5489 5482 5476 5468 5458 5450 5445 5440 5433 5427 5424 5422 5418 5418 5423
5616 5617 5618 5618 5619 5621 5622 5621 5621 5620 5619 5616 5613 5609 5605 5601 5595 5589 5582 5576 5568 5559 5548 5536 5521 5506 5496 5486 5480 5472 5465 5454 5445 5441 5438 5431 5424 5421 5417 5415 5413 5415 5416
5601 5602 5603 5604 5605 5606 5606 5606 5606 5606 5604 5601 5598 5595 5591 5587 5580 5574 5568 5562 5554 5543 5532 5519 5506 5495 5485 5477 5471 5462 5451 5442 5438 5436 5431 5424 5419 5415 5411 5410 5409 5409 5412
5587 5588 5589 5590 5592 5593 5593 5593 5594 5593 5591 5588 5584 5581 5576 5571 5564 5560 5553 5547 5538 5528 5516 5504 5492 5484 5476 5470 5462 5452 5441 5437 5434 5431 5425 5419 5413 5410 5408 5407 5404 5401 5409
5574 5576 5577 5579 5580 5581 5581 5582 5582 5580 5577 5573 5570 5565 5562 5556 5551 5547 5540 5531 5523 5513 5500 5491 5481 5473 5470 5462 5454 5443 5435 5433 5431 5427 5423 5416 5410 5407 5408 5408 5405 5404 5412
5561 5563 5566 5568 5570 5570 5570 5570 5569 5567 5564 5560 5556 5552 5547 5542 5539 5533 5525 5516 5508 5498 5492 5483 5475 5467 5463 5458 5449 5438 5430 5429 5428 5425 5420 5416 5412 5408 5407 5409 5411 5409 5411
5551 5553 5555 5556 5557 5557 5558 5557 5556 5555 5551 5546 5542 5538 5534 5530 5525 5517 5509 5502 5497 5490 5482 5476 5470 5463 5461 5455 5447 5436 5427 5425 5424 5422 5420 5416 5412 5409 5407 5408 5409 5410 5411
5540 5541 5543 5544 5545 5545 5545 5545 5543 5540 5535 5532 5529 5525 5520 5515 5509 5503 5497 5493 5488 5482 5477 5470 5464 5459 5458 5453 5446 5436 5426 5421 5420 5420 5418 5416 5413 5411 5411 5411 5411 5412 5414
5526 5528 5530 5531 5532 5533 5534 5531 5528 5525 5523 5520 5516 5512 5505 5499 5495 5492 5488 5484 5480 5474 5471 5465 5461 5459 5456 5451 5445 5437 5429 5421 5417 5416 5416 5415 5415 5413 5413 5414 5415 5415 5416
5514 5516 5517 5519 5520 5520 5518 5516 5514 5513 5511 5507 5502 5498 5493 5489 5487 5484 5479 5478 5472 5469 5463 5460 5456 5457 5453 5448 5444 5438 5432 5425 5420 5416 5414 5414 5414 5414 5415 5416 5417 5419 5420
5504 5505 5506 5506 5505 5504 5503 5502 5502 5500 5498 5495 5490 5486 5483 5482 5479 5476 5474 5471 5469 5465 5461 5456 5455 5454 5450 5446 5442 5439 5435 5431 5426 5422 5418 5415 5414 5413 5413 5414 5414 5415 5417